Location: Allos
(44.2333°N, 6.6333°E)
Time: 22:25:05
(UTC+00:00)

Cosmos 1821 Rocket - Pass Details

Date: 22 April 2021
Orbit: 946 x 1003 km, 82.9° (Epoch: 16 May)

Event Time Altitude Azimuth Distance (km) Brightness Sun altitude
Rises 03:26:08 0° 334° (NNW) 3,713 7.1 -12.6°
Reaches altitude 10° 03:30:05 10° 310° (NW) 2,768 6.2 -12.0°
Maximum altitude 03:32:59 14° 282° (WNW) 2,514 5.7 -11.5°
Enters shadow 03:35:00 12° 262° (W) 2,642 5.7 -11.2°
